PEGASUS DEB, 24985

Orbit data source: Space-Track

PEGASUS DEB, 24985 is space debris in LEO originally from a launch on Thu, 19 May 1994 UTC launched from the Air Force Western Test Range (AFWTR). Debris objects in space refer to the collection of defunct objects orbiting the Earth. Examples of debris include non-operational satellites, rocket bodies, and fragments generated from explosions, collisions, or faulty payload assembly.

Loading next visibility...
Identifier
24985, 1994-029ACT
Orbit
LEO
Country
Flag of USUS
Related business
Manufacturer
Unknown
Mission
Spacecraft
Bus & Motor
Unknown
Mass
Unknown
Launch date (UTC)
1994-05-19 (32 years ago)
Launch vehicle
Unknown
Launch site
Air Force Western Test Range (AFWTR)
Object type
Payload
Rocket body
Debris
Shape & HBR
Unknown shape, 0.1 m
Radar Cross Section
Medium (>0.1 m² and <1 m²)

Expand to show TLE details & history
Last TLE update: 7 hours ago

TLE from 7 hours ago
0 PEGASUS DEB
1 24985U 94029ACT 26178.19576130  .00001750  00000-0  53150-3 0  9998
2 24985  81.5110 157.0833 0599210 260.9216  92.3705 13.70847314600555
Epoch: 2026-06-27T04:41Z
TLE epoch observation values (Epoch: 2026-06-27T04:41:53.776Z)
Latitude
-0.00001°
Longitude
171.29584°
Altitude
1,043.951 km
Speed
7.308 km/s
True Right ascension
10h 28m 19s
True Declination
0° 00' 00"
Sunlit
Object was in daylight at epoch
Visualization orbit readout
Latitude
Unknown
Longitude
Unknown
Altitude
Unknown
Speed
Unknown
Apparent Right ascension
Unknown
Apparent Declination
Unknown
Sunlit
N/A
Visualization observer readout
Local Sidereal Time
23:00:17
Azimuth
Unknown
Elevation
Unknown
Doppler factor
Unknown
Orbital elements
Apogee altitude
1,435.46 km
Perigee altitude
552 km
Semi-major axis
7,371.867 km
Eccentricity
0.05992
Inclination
81.511°
RAAN
157.0833°
Arg. of periapsis
260.9216°
True anomaly
99.19372°
Mean anomaly
92.3705°
Eccentric anomaly
95.78623°
Mean motion
3.42907 °/min
Orbital period
104.98 mins
BSTAR
0.0005315
Loading maneuver chart data...
Computing Atmospheric mass density...

Documentation

Showing up to 5 results
|